TimeEDT,TemperatureF,Dew PointF,Humidity,Sea Level PressureIn,VisibilityMPH,Wind Direction,Wind SpeedMPH,Gust SpeedMPH,PrecipitationIn,Events,Conditions,WindDirDegrees,DateUTC
12:52 AM,69.1,68.0,96,30.01,6.0,Calm,Calm,-,N/A,,Partly Cloudy,0,2013-07-18 04:52:00
1:12 AM,68.0,66.2,94,30.02,4.0,Calm,Calm,-,N/A,,Scattered Clouds,0,2013-07-18 05:12:00
1:32 AM,69.8,68.0,94,30.01,2.0,Calm,Calm,-,N/A,,Mostly Cloudy,0,2013-07-18 05:32:00
1:36 AM,69.8,68.0,94,30.01,1.2,SSW,3.5,-,N/A,,Mostly Cloudy,210,2013-07-18 05:36:00
1:43 AM,68.0,66.2,94,30.01,0.8,East,3.5,-,N/A,,Mist,100,2013-07-18 05:43:00
1:52 AM,68.0,68.0,100,29.99,0.2,SSE,4.6,-,N/A,Fog,Fog,150,2013-07-18 05:52:00
2:02 AM,68.0,68.0,100,30.01,0.5,Calm,Calm,-,0.01,Fog,Fog,0,2013-07-18 06:02:00
2:12 AM,66.2,66.2,100,30.01,1.8,Calm,Calm,-,0.01,,Mostly Cloudy,0,2013-07-18 06:12:00
2:14 AM,66.2,66.2,100,30.01,3.0,Calm,Calm,-,0.01,,Mostly Cloudy,0,2013-07-18 06:14:00
2:36 AM,66.2,66.2,100,30.01,6.0,Calm,Calm,-,0.01,,Scattered Clouds,0,2013-07-18 06:36:00
2:52 AM,68.0,68.0,100,29.99,6.0,Calm,Calm,-,0.01,,Partly Cloudy,0,2013-07-18 06:52:00
3:52 AM,66.9,66.0,97,30.00,6.0,Calm,Calm,-,N/A,,Mostly Cloudy,0,2013-07-18 07:52:00
4:32 AM,64.4,64.4,100,30.03,4.0,Calm,Calm,-,N/A,,Scattered Clouds,0,2013-07-18 08:32:00
4:41 AM,64.4,62.6,94,30.03,1.2,Calm,Calm,-,N/A,,Mostly Cloudy,0,2013-07-18 08:41:00
4:49 AM,64.4,64.4,100,30.03,0.5,Calm,Calm,-,N/A,Fog,Fog,0,2013-07-18 08:49:00
4:52 AM,64.0,63.0,96,30.01,0.8,Calm,Calm,-,N/A,,Mostly Cloudy,0,2013-07-18 08:52:00
4:54 AM,64.4,64.4,100,30.03,1.0,Calm,Calm,-,N/A,,Scattered Clouds,0,2013-07-18 08:54:00
4:58 AM,66.2,64.4,94,30.03,2.0,Calm,Calm,-,N/A,,Scattered Clouds,0,2013-07-18 08:58:00
5:05 AM,64.4,64.4,100,30.03,1.5,Calm,Calm,-,N/A,,Mostly Cloudy,0,2013-07-18 09:05:00
5:23 AM,66.2,64.4,94,30.04,2.5,Calm,Calm,-,N/A,,Mostly Cloudy,0,2013-07-18 09:23:00
5:30 AM,66.2,64.4,94,30.04,3.0,Calm,Calm,-,N/A,,Mostly Cloudy,0,2013-07-18 09:30:00
5:52 AM,66.0,64.9,96,30.02,4.0,Calm,Calm,-,N/A,,Mostly Cloudy,0,2013-07-18 09:52:00
6:52 AM,69.1,68.0,96,30.04,7.0,Calm,Calm,-,N/A,,Mostly Cloudy,0,2013-07-18 10:52:00
7:00 AM,71.6,68.0,88,30.06,8.0,Calm,Calm,-,N/A,,Mostly Cloudy,0,2013-07-18 11:00:00
7:52 AM,73.9,69.1,85,30.05,10.0,NW,4.6,-,N/A,,Clear,310,2013-07-18 11:52:00
8:52 AM,75.9,68.0,76,30.05,10.0,Calm,Calm,-,N/A,,Partly Cloudy,0,2013-07-18 12:52:00
9:52 AM,77.0,66.9,71,30.05,10.0,Calm,Calm,-,N/A,,Scattered Clouds,0,2013-07-18 13:52:00
10:52 AM,81.0,66.9,62,30.03,10.0,Variable,3.5,-,N/A,,Clear,0,2013-07-18 14:52:00
11:52 AM,81.0,66.9,62,30.02,10.0,NW,5.8,-,N/A,,Overcast,310,2013-07-18 15:52:00
12:52 PM,82.9,66.0,56,30.01,10.0,Variable,4.6,-,N/A,,Overcast,0,2013-07-18 16:52:00
1:52 PM,84.0,66.9,56,30.01,10.0,Calm,Calm,-,N/A,,Mostly Cloudy,0,2013-07-18 17:52:00
2:52 PM,82.9,68.0,60,29.99,10.0,Variable,3.5,-,N/A,,Overcast,0,2013-07-18 18:52:00
3:15 PM,78.8,69.8,74,30.01,1.8,NNW,6.9,-,0.08,Rain,Heavy Rain,330,2013-07-18 19:15:00
3:31 PM,75.2,71.6,89,30.01,3.0,North,3.5,-,0.15,Rain,Light Rain,10,2013-07-18 19:31:00
3:52 PM,79.0,73.0,82,29.99,10.0,Calm,Calm,-,0.15,,Mostly Cloudy,0,2013-07-18 19:52:00
4:52 PM,84.0,71.1,65,29.96,10.0,Calm,Calm,-,N/A,,Partly Cloudy,0,2013-07-18 20:52:00
5:52 PM,82.9,72.0,69,29.96,10.0,Calm,Calm,-,0.00,Rain,Light Rain,0,2013-07-18 21:52:00
6:52 PM,79.0,71.1,77,29.95,10.0,Calm,Calm,-,0.00,,Scattered Clouds,0,2013-07-18 22:52:00
7:16 PM,78.8,73.4,83,29.99,10.0,Calm,Calm,-,0.00,Rain-Thunderstorm,Light Thunderstorms and Rain,0,2013-07-18 23:16:00
7:50 PM,73.4,69.8,88,30.00,6.0,North,5.8,-,0.02,Rain,Light Rain,350,2013-07-18 23:50:00
7:52 PM,73.0,69.1,87,29.98,6.0,North,5.8,-,0.02,Rain,Light Rain,360,2013-07-18 23:52:00
8:52 PM,71.1,69.1,93,30.01,7.0,NNW,4.6,-,0.03,Rain,Light Rain,340,2013-07-19 00:52:00
9:03 PM,69.8,69.8,100,30.01,1.8,Calm,Calm,-,0.10,Rain,Heavy Rain,0,2013-07-19 01:03:00
9:11 PM,69.8,69.8,100,30.01,3.0,Calm,Calm,-,0.10,Rain,Light Rain,0,2013-07-19 01:11:00
9:52 PM,70.0,69.1,97,29.99,8.0,Calm,Calm,-,0.10,,Scattered Clouds,0,2013-07-19 01:52:00
10:16 PM,69.8,69.8,100,30.00,5.0,Calm,Calm,-,N/A,,Mostly Cloudy,0,2013-07-19 02:16:00
10:52 PM,70.0,69.1,97,29.98,2.5,Calm,Calm,-,N/A,,Mostly Cloudy,0,2013-07-19 02:52:00
11:07 PM,69.8,68.0,94,29.99,4.0,Calm,Calm,-,N/A,,Mostly Cloudy,0,2013-07-19 03:07:00
11:52 PM,69.1,68.0,96,29.96,4.0,Calm,Calm,-,N/A,,Mostly Cloudy,0,2013-07-19 03:52:00